When you browse on this site, cookies collect data to enhance your experience and personalize the content and advertising you see.
Visit our Privacy Policy to learn more. By continuing to use the site, you agree to this use of cookies and data.
  • In Czech Republic
  • List of Countries
  • For 7 days
  • Water Temperature
  • Weather Map
  • Weather Widgets
  • user-avatar
    Login

    Hourly Weather Chimichagua

    Today, 10 December, Tuesday

    Time Temperature Precipitation Wind Pressure Humidity
    00:00 +23°C° 0 mm 0 mps 754 mmHg 87%
    01:00 +23°C° 0 mm 0 mps 754 mmHg 88%
    02:00 +22°C° 0 mm 0 mps 754 mmHg 88%
    03:00 +22°C° 0 mm 0 mps 754 mmHg 88%
    04:00 +22°C° 0 mm 0 mps 754 mmHg 88%
    05:00 +22°C° 0 mm 0 mps 754 mmHg 87%
    06:00 +23°C° 0 mm 0 mps 755 mmHg 86%
    07:00 +23°C° 0 mm 0 mps 755 mmHg 85%
    08:00 +26°C° 0 mm 0 mps 755 mmHg 76%
    09:00 +28°C° 0 mm 0 mps 755 mmHg 68%
    10:00 +31°C° 0 mm 0 mps 755 mmHg 60%
    11:00 +31°C° 0 mm 0 mps 755 mmHg 57%
    12:00 +32°C° 0 mm 0 mps 754 mmHg 54%
    13:00 +33°C° 0 mm 0 mps 753 mmHg 51%
    14:00 +35°C° 0 mm 1 mps 753 mmHg 55%
    15:00 +34°C° 0 mm 1 mps 752 mmHg 59%
    16:00 +33°C° 0 mm 1 mps 752 mmHg 63%
    17:00 +31°C° 0 mm 1 mps 752 mmHg 68%
    18:00 +29°C° 0 mm 1 mps 753 mmHg 74%
    19:00 +27°C° 0 mm 1 mps 753 mmHg 80%
    20:00 +27°C° 0 mm 1 mps 754 mmHg 80%
    21:00 +26°C° 0 mm 1 mps 754 mmHg 81%
    22:00 +26°C° 0 mm 1 mps 755 mmHg 82%
    23:00 +26°C° 0 mm 1 mps 755 mmHg 83%

    Tomorrow, 11 December, Wednesday

    Time Temperature Precipitation Wind Pressure Humidity
    00:00 +23°C° 0 mm 0 mps 754 mmHg 84%
    01:00 +23°C° 0 mm 0 mps 754 mmHg 85%
    02:00 +23°C° 0 mm 0 mps 754 mmHg 85%
    03:00 +22°C° 0 mm 0 mps 754 mmHg 86%
    04:00 +22°C° 0 mm 0 mps 754 mmHg 87%
    05:00 +22°C° 0 mm 0 mps 754 mmHg 86%
    06:00 +23°C° 0 mm 0 mps 755 mmHg 85%
    07:00 +23°C° 0 mm 0 mps 756 mmHg 84%
    08:00 +25°C° 0 mm 0 mps 756 mmHg 76%
    09:00 +28°C° 0 mm 0 mps 756 mmHg 69%
    10:00 +30°C° 0 mm 0 mps 756 mmHg 61%
    11:00 +31°C° 0 mm 0 mps 755 mmHg 57%
    12:00 +32°C° 0 mm 0 mps 754 mmHg 54%
    13:00 +34°C° 0 mm 1 mps 754 mmHg 51%
    14:00 +34°C° 0 mm 1 mps 753 mmHg 55%
    15:00 +33°C° 0 mm 1 mps 753 mmHg 60%
    16:00 +32°C° 0 mm 1 mps 752 mmHg 64%
    17:00 +31°C° 0 mm 1 mps 753 mmHg 69%
    18:00 +29°C° 0 mm 1 mps 753 mmHg 74%
    19:00 +27°C° 0 mm 1 mps 754 mmHg 78%
    20:00 +25°C° 0 mm 0 mps 754 mmHg 80%
    21:00 +24°C° 0 mm 0 mps 755 mmHg 81%
    22:00 +24°C° 0 mm 0 mps 755 mmHg 82%
    23:00 +24°C° 0 mm 0 mps 755 mmHg 84%

    Day after tomorrow, 12 December, Thursday

    Time Temperature Precipitation Wind Pressure Humidity
    00:00 +23°C° 0 mm 0 mps 754 mmHg 86%
    01:00 +23°C° 0 mm 0 mps 754 mmHg 87%
    02:00 +23°C° 0 mm 0 mps 754 mmHg 89%
    03:00 +22°C° 0 mm 0 mps 754 mmHg 90%
    04:00 +22°C° 0 mm 0 mps 754 mmHg 91%
    05:00 +22°C° 0 mm 0 mps 754 mmHg 90%
    06:00 +23°C° 0 mm 0 mps 755 mmHg 88%
    07:00 +23°C° 0 mm 0 mps 755 mmHg 87%
    08:00 +25°C° 0 mm 0 mps 755 mmHg 78%
    09:00 +28°C° 0 mm 0 mps 755 mmHg 70%
    10:00 +30°C° 0 mm 0 mps 755 mmHg 61%
    11:00 +31°C° 0 mm 0 mps 755 mmHg 58%
    12:00 +34°C° 0 mm 1 mps 754 mmHg 54%
    13:00 +35°C° 0 mm 1 mps 753 mmHg 51%
    14:00 +34°C° 0 mm 1 mps 753 mmHg 55%
    15:00 +33°C° 0 mm 1 mps 752 mmHg 58%
    16:00 +33°C° 0 mm 1 mps 752 mmHg 62%
    17:00 +31°C° 0 mm 1 mps 752 mmHg 68%
    18:00 +29°C° 0 mm 1 mps 753 mmHg 75%
    19:00 +25°C° 0 mm 0 mps 753 mmHg 81%
    20:00 +24°C° 0 mm 0 mps 754 mmHg 82%
    21:00 +24°C° 0 mm 0 mps 754 mmHg 83%
    22:00 +24°C° 0 mm 0 mps 755 mmHg 84%
    23:00 +23°C° 0 mm 0 mps 754 mmHg 85%

    13 December, Friday

    Time Temperature Precipitation Wind Pressure Humidity
    00:00 +23°C° 0 mm 0 mps 754 mmHg 86%
    01:00 +23°C° 0 mm 0 mps 754 mmHg 87%
    02:00 +22°C° 0 mm 0 mps 754 mmHg 88%
    03:00 +22°C° 0 mm 0 mps 754 mmHg 89%
    04:00 +22°C° 0 mm 0 mps 753 mmHg 90%
    05:00 +22°C° 0 mm 0 mps 754 mmHg 89%
    06:00 +23°C° 0 mm 0 mps 754 mmHg 87%
    07:00 +23°C° 0 mm 0 mps 755 mmHg 86%
    08:00 +25°C° 0 mm 0 mps 755 mmHg 79%
    09:00 +29°C° 0 mm 1 mps 755 mmHg 71%
    10:00 +31°C° 0 mm 1 mps 755 mmHg 63%
    11:00 +32°C° 0 mm 1 mps 754 mmHg 59%
    12:00 +33°C° 0 mm 1 mps 754 mmHg 56%
    13:00 +34°C° 0 mm 1 mps 753 mmHg 52%
    14:00 +33°C° 0 mm 1 mps 752 mmHg 56%
    15:00 +33°C° 0 mm 1 mps 752 mmHg 60%
    16:00 +32°C° 0 mm 1 mps 751 mmHg 64%
    17:00 +30°C° 0 mm 1 mps 752 mmHg 70%
    18:00 +29°C° 0 mm 1 mps 752 mmHg 77%
    19:00 +25°C° 0 mm 0 mps 753 mmHg 83%
    20:00 +24°C° 0.1 mm 0 mps 753 mmHg 85%
    21:00 +26°C° 0.1 mm 1 mps 754 mmHg 87%
    22:00 +25°C° 0.1 mm 1 mps 755 mmHg 89%
    23:00 +23°C° 0 mm 0 mps 754 mmHg 91%

    14 December, Saturday

    Time Temperature Precipitation Wind Pressure Humidity
    00:00 +23°C° 0 mm 0 mps 754 mmHg 92%
    01:00 +22°C° 0 mm 0 mps 754 mmHg 94%
    02:00 +22°C° 0.1 mm 0 mps 754 mmHg 94%
    03:00 +22°C° 0.1 mm 0 mps 754 mmHg 95%
    04:00 +22°C° 0.1 mm 0 mps 754 mmHg 95%
    05:00 +22°C° 0 mm 0 mps 754 mmHg 94%
    06:00 +22°C° 0 mm 0 mps 755 mmHg 92%
    07:00 +23°C° 0 mm 0 mps 755 mmHg 91%
    08:00 +25°C° 0 mm 0 mps 755 mmHg 83%
    09:00 +27°C° 0 mm 0 mps 755 mmHg 74%
    10:00 +31°C° 0 mm 1 mps 755 mmHg 66%
    11:00 +32°C° 0 mm 1 mps 755 mmHg 63%
    12:00 +33°C° 0 mm 1 mps 754 mmHg 61%
    13:00 +34°C° 0 mm 1 mps 753 mmHg 58%
    14:00 +33°C° 0.2 mm 1 mps 752 mmHg 62%
    15:00 +32°C° 0.2 mm 1 mps 752 mmHg 66%
    16:00 +32°C° 0.2 mm 1 mps 751 mmHg 70%
    17:00 +30°C° 0.7 mm 1 mps 752 mmHg 77%
    18:00 +28°C° 0.7 mm 1 mps 753 mmHg 84%
    19:00 +24°C° 0.7 mm 0 mps 753 mmHg 92%
    20:00 +24°C° 0.5 mm 0 mps 754 mmHg 92%
    21:00 +26°C° 0.5 mm 1 mps 754 mmHg 93%
    22:00 +25°C° 0.5 mm 1 mps 755 mmHg 93%
    23:00 +25°C° 0 mm 1 mps 755 mmHg 94%

    15 December, Sunday

    Time Temperature Precipitation Wind Pressure Humidity
    00:00 +23°C° 0 mm 0 mps 754 mmHg 95%
    01:00 +22°C° 0 mm 0 mps 754 mmHg 96%
    02:00 +22°C° 0 mm 0 mps 754 mmHg 96%
    03:00 +22°C° 0 mm 0 mps 754 mmHg 96%
    04:00 +22°C° 0 mm 0 mps 754 mmHg 96%
    05:00 +22°C° 0 mm 0 mps 754 mmHg 95%
    06:00 +22°C° 0 mm 0 mps 755 mmHg 95%
    07:00 +23°C° 0 mm 0 mps 755 mmHg 94%
    08:00 +25°C° 0 mm 0 mps 756 mmHg 85%
    09:00 +27°C° 0 mm 0 mps 756 mmHg 77%
    10:00 +30°C° 0 mm 0 mps 756 mmHg 68%
    11:00 +31°C° 0 mm 0 mps 755 mmHg 63%
    12:00 +32°C° 0 mm 0 mps 754 mmHg 59%
    13:00 +33°C° 0 mm 0 mps 753 mmHg 54%
    14:00 +32°C° 0.1 mm 0 mps 753 mmHg 57%
    15:00 +34°C° 0.1 mm 1 mps 752 mmHg 61%
    16:00 +33°C° 0.1 mm 1 mps 752 mmHg 65%
    17:00 +31°C° 0.5 mm 1 mps 752 mmHg 73%
    18:00 +27°C° 0.5 mm 0 mps 753 mmHg 81%
    19:00 +25°C° 0.5 mm 0 mps 754 mmHg 89%
    20:00 +24°C° 0.6 mm 0 mps 754 mmHg 91%
    21:00 +24°C° 0.6 mm 0 mps 755 mmHg 92%
    22:00 +23°C° 0.6 mm 0 mps 755 mmHg 94%
    23:00 +23°C° 0.1 mm 0 mps 755 mmHg 94%
    Show more